Location: Unspecified
(0.0000°N, 0.0000°E)
Time: 02:08:55
(UTC+02:00)

Amateur Radio Satellites - All Passes

Search period start: 29 August 2016 01:38
Search period end: 30 August 2016 01:38
Location: Unspecified, 0.0000°N, 0.0000°E

Satellite Date Start Highest point End Downlink Frequencies (MHz)
Time Altitude Azimuth
POPSAT HIP 1 29 Aug 01:42:59 01:46:46 34° 282° (WNW) 01:50:35 437.405
ESTCUBE 1 29 Aug 01:59:46 02:02:42 17° 258° (WSW) 02:05:39 437.505/2401.250
AISAT 29 Aug 02:02:39 02:06:34 31° 258° (WSW) 02:10:29 437.250
UKube-1 29 Aug 02:05:29 02:09:47 69° 258° (WSW) 02:14:03 .
Oscar 19 29 Aug 02:05:56 02:08:42 15° 103° (ESE) 02:11:26 437.125/150
DUCHIFAT 1 29 Aug 02:10:33 02:13:11 17° 282° (WNW) 02:15:50 145.980
SRMSAT 29 Aug 02:14:59 02:17:38 13° 190° (S) 02:20:17 437.500
QB50P2 29 Aug 02:16:06 02:17:24 11° 282° (WNW) 02:18:43 145.880/145.840
POLYITAN 1 29 Aug 02:18:45 02:19:55 11° 282° (WNW) 02:21:04 437.675
GONETS M04 29 Aug 02:20:39 02:27:21 25° 267° (W) 02:34:06
JUGNU 29 Aug 02:28:44 02:29:39 10° 175° (S) 02:30:34 437.505
RS-15 29 Aug 02:30:41 02:40:37 39° 292° (WNW) 02:51:05 29.354- 29.394
Cosmos 2499 29 Aug 02:42:06 02:46:33 17° 265° (W) 02:51:11 435.465 / 435.565
JAS-2 29 Aug 02:55:40 03:01:48 27° 283° (WNW) 03:08:09 435.910
SPROUT 29 Aug 03:04:05 03:05:23 11° 258° (WSW) 03:06:41 437.525
TISAT 1 29 Aug 03:16:18 03:20:24 49° 258° (WSW) 03:24:30 437.305
O/OREOS (USA 219) 29 Aug 03:16:38 03:17:44 11° 255° (WSW) 03:18:50 437.305
SWISSCUBE 29 Aug 03:20:29 03:24:11 23° 78° (ENE) 03:27:51 437.505
Gurwin Techsat 1B 29 Aug 03:22:40 03:27:46 49° 103° (ESE) 03:32:53 435.225
BEESAT 29 Aug 03:36:54 03:41:10 32° 78° (ENE) 03:45:23 436.000
Oscar 19 29 Aug 03:43:06 03:47:43 34° 283° (WNW) 03:52:22 437.125/150
JUGNU 29 Aug 04:15:37 04:19:36 18° 165° (SSE) 04:23:36 437.505
ITUPSAT 1 29 Aug 04:24:38 04:29:20 58° 258° (WSW) 04:34:01 437.325
AO-7 29 Aug 04:25:09 04:32:04 30° 107° (ESE) 04:38:59 29.400- 29.500
SWISSCUBE 29 Aug 04:58:26 05:01:42 18° 257° (WSW) 05:04:57 437.505
ITAMSAT 1 29 Aug 04:59:20 05:04:21 52° 283° (WNW) 05:09:24 435.822/435.867
KKS-1 29 Aug 05:03:01 05:06:48 27° 78° (ENE) 05:10:34 437.445
BEESAT 29 Aug 05:16:39 05:18:40 13° 257° (WSW) 05:20:39 436.000
MOZHAYETS 4 29 Aug 05:16:46 05:21:19 62° 79° (ENE) 05:25:49
AO-85 29 Aug 05:17:59 05:23:17 60° 291° (WNW) 05:28:34 145.980
STARS 29 Aug 05:35:27 05:39:20 30° 78° (ENE) 05:43:13 437.465
SRMSAT 29 Aug 05:55:08 05:58:17 14° 169° (S) 06:01:27 437.500
Cosmos 2491 29 Aug 06:00:35 06:06:46 21° 87° (E) 06:12:56 435.465 / 435.565
JUGNU 29 Aug 06:03:23 06:09:01 42° 160° (SSE) 06:14:40 437.505
AO-7 29 Aug 06:17:08 06:24:28 37° 286° (WNW) 06:31:52 29.400- 29.500
HORYU 2 29 Aug 06:37:07 06:41:29 70° 102° (ESE) 06:45:54 437.375
CUBESAT XI-V 29 Aug 06:40:11 06:44:41 57° 78° (ENE) 06:49:11 437.345
KKS-1 29 Aug 06:41:00 06:43:04 13° 257° (WSW) 06:45:09 437.445
YUBILEINY 29 Aug 06:44:26 06:52:42 45° 93° (E) 07:00:56 435.215
GOMX 1 29 Aug 07:00:58 07:03:28 14° 100° (E) 07:05:53 467.674
NOAA 18 29 Aug 07:01:53 07:04:42 14° 104° (ESE) 07:07:31 137.9125
ISS 29 Aug 07:13:33 07:16:45 51° 305° (NW) 07:19:56 145.825
STARS 29 Aug 07:13:59 07:15:24 11° 257° (WSW) 07:16:49 437.465
BRITE-PL 29 Aug 07:28:49 07:34:18 81° 282° (WNW) 07:39:26 437.365/2234.400
Cubesat XI-IV 29 Aug 07:37:11 07:42:14 45° 103° (ESE) 07:47:19 437.490
SRMSAT 29 Aug 07:42:52 07:48:05 30° 162° (SSE) 07:53:18 437.500
NOAA 15 29 Aug 07:45:21 07:50:40 81° 103° (ESE) 07:55:59 137.62
CUTE-I 29 Aug 07:48:24 07:53:39 64° 103° (ESE) 07:58:56 437.470
JUGNU 29 Aug 07:52:08 07:58:07 71° 339° (NNW) 08:04:06 437.505
LilacSat-2 29 Aug 07:53:24 07:57:08 84° 96° (E) 08:00:57 437.200
Cosmos 2491 29 Aug 07:54:50 08:03:12 48° 267° (W) 08:11:36 435.465 / 435.565
Cosmos 2504 29 Aug 08:03:08 08:11:47 57° 93° (E) 08:20:00 435.465 / 435.565
BEESAT 3 29 Aug 08:20:56 08:22:41 13° 112° (ESE) 08:24:27 437.485
STRAND 1 29 Aug 08:32:00 08:36:48 40° 78° (ENE) 08:41:33 437.568
DOVE 4 29 Aug 08:36:16 08:40:53 85° 281° (W) 08:45:14 437.250
GOMX 1 29 Aug 08:37:01 08:41:20 30° 283° (WNW) 08:45:26 467.674
NOAA 18 29 Aug 08:40:05 08:45:04 38° 283° (WNW) 08:50:04 137.9125
YUBILEINY 29 Aug 08:42:37 08:49:05 23° 273° (W) 08:55:36 435.215
HO-68 29 Aug 08:51:51 08:57:59 32° 105° (ESE) 09:04:08 435.675
SEEDS 29 Aug 09:05:00 09:07:51 18° 102° (ESE) 09:10:43 437.485
CINEMA 3 29 Aug 09:07:06 09:11:05 42° 101° (ESE) 09:15:01 145.822/145.860
CUBEBUG 2 29 Aug 09:19:23 09:19:27 10° 102° (ESE) 09:19:31 437.445
Cubesat XI-IV 29 Aug 09:20:38 09:22:01 11° 283° (WNW) 09:23:24 437.490
CANX-2 29 Aug 09:27:56 09:32:11 78° 102° (ESE) 09:36:28 2200.000
AIST 1 29 Aug 09:29:24 09:32:45 22° 94° (E) 09:36:06
SRMSAT 29 Aug 09:31:24 09:37:25 80° 159° (SSE) 09:43:24 437.500
AAUSAT CUBESAT 2 29 Aug 09:31:55 09:34:56 19° 102° (ESE) 09:37:58 437.432
CUTE 1.7 + AOD 2 29 Aug 09:33:46 09:38:01 79° 102° (ESE) 09:42:18 437.475
COMPASS 1 29 Aug 09:40:32 09:44:23 36° 102° (ESE) 09:48:16 437.405
BEESAT 2 29 Aug 09:41:00 09:44:54 87° 112° (ESE) 09:48:49 435.950
JUGNU 29 Aug 09:42:19 09:47:18 27° 342° (NNW) 09:52:19 437.505
BEESAT 3 29 Aug 09:57:12 10:00:06 20° 292° (WNW) 10:03:00 437.485
Cosmos 2504 29 Aug 09:59:14 10:04:39 18° 272° (W) 10:09:59 435.465 / 435.565
STRAND 1 29 Aug 10:13:59 10:15:41 12° 257° (WSW) 10:17:22 437.568
SO-50 29 Aug 10:15:07 10:17:29 14° 67° (ENE) 10:19:50 436.795
Oscar 11 29 Aug 10:26:00 10:29:59 36° 102° (ESE) 10:33:58 145.826/435.025
PRISM 29 Aug 10:32:51 10:36:55 74° 259° (W) 10:40:58 437.425
FUNcube-1 29 Aug 10:35:17 10:39:12 43° 102° (ESE) 10:43:13 145.935
HO-68 29 Aug 10:39:31 10:45:23 28° 285° (WNW) 10:51:17 435.675
SEEDS 29 Aug 10:40:25 10:43:17 18° 281° (WNW) 10:46:10 437.485
PHONESAT 2.4 29 Aug 10:45:55 10:48:52 68° 42° (NE) 10:51:51 2401.200-2431.200
UWE-3 29 Aug 10:46:14 10:50:18 59° 281° (WNW) 10:54:26 435.000/436.395/437.385
CUBEBUG 2 29 Aug 10:52:16 10:55:48 28° 281° (WNW) 10:59:22 437.445
CUSAT 1 29 Aug 10:55:50 11:01:11 20° 86° (E) 11:06:33 437.405
ZACube-1 29 Aug 10:57:23 11:01:31 75° 282° (WNW) 11:05:44 437.345
DELFI C3 29 Aug 10:57:46 11:01:21 32° 101° (ESE) 11:04:58 145.870
AAUSAT CUBESAT 2 29 Aug 11:07:37 11:10:08 16° 281° (WNW) 11:12:40 437.432
AIST 1 29 Aug 11:08:05 11:10:04 13° 274° (W) 11:12:02
TIGRISAT 29 Aug 11:20:01 11:23:49 25° 78° (ENE) 11:27:35 435.000
SRMSAT 29 Aug 11:21:11 11:26:41 38° 340° (NNW) 11:32:09 437.500
HUMSAT D 29 Aug 11:30:56 11:34:45 38° 101° (ESE) 11:38:40 437.325/437.525
JUGNU 29 Aug 11:34:14 11:37:00 13° 350° (N) 11:39:47 437.505
PCSat 29 Aug 11:37:20 11:42:45 88° 105° (ESE) 11:48:09 145.827
UNISAT 6 29 Aug 11:48:16 11:52:57 67° 78° (ENE) 11:57:32 437.425
SO-50 29 Aug 11:54:06 11:57:41 24° 248° (WSW) 12:01:16 436.795
RS-15 29 Aug 12:01:23 12:11:44 32° 68° (ENE) 12:21:37 29.354- 29.394
DANDE 29 Aug 12:04:09 12:10:39 33° 88° (E) 12:17:51 436.750
AIST 2 29 Aug 12:05:04 12:09:04 59° 292° (WNW) 12:13:05 435.215
POPSAT HIP 1 29 Aug 12:16:19 12:17:30 11° 78° (ENE) 12:18:41 437.405
ANTELSAT 29 Aug 12:25:26 12:29:48 38° 258° (WSW) 12:34:06 437.575/2403.000
CUSAT 1 29 Aug 12:35:15 12:42:52 55° 265° (W) 12:50:32 437.405
ESTCUBE 1 29 Aug 12:36:09 12:40:11 32° 102° (ESE) 12:44:14 437.505/2401.250
AISAT 29 Aug 12:39:19 12:42:02 16° 102° (ESE) 12:44:44 437.250
DUCHIFAT 1 29 Aug 12:39:59 12:43:19 22° 78° (ENE) 12:46:37 145.980
QB50P2 29 Aug 12:44:24 12:48:16 33° 78° (ENE) 12:52:07 145.880/145.840
POLYITAN 1 29 Aug 12:46:53 12:50:47 34° 78° (ENE) 12:54:40 437.675
JAS-2 29 Aug 12:47:56 12:50:09 13° 78° (ENE) 12:52:23 435.910
NANOSAT C BR1 29 Aug 12:53:54 12:57:54 39° 78° (ENE) 13:01:52 145.865
GONETS M04 29 Aug 12:55:47 13:04:30 80° 93° (E) 13:13:15
Cosmos 2499 29 Aug 12:56:05 13:04:42 64° 94° (E) 13:12:45 435.465 / 435.565
50 SAT 29 Aug 12:56:17 12:59:16 24° 102° (ESE) 13:02:16 437.505
TIGRISAT 29 Aug 12:57:18 13:00:13 16° 258° (WSW) 13:03:06 435.000
AUBIESAT-1 29 Aug 12:59:04 13:02:34 67° 285° (WNW) 13:05:54 437.475
M-CUBED/EXP-1 PRIME 29 Aug 13:06:26 13:09:42 35° 286° (WNW) 13:12:48 437.505
SRMSAT 29 Aug 13:12:37 13:16:18 17° 346° (NNW) 13:19:58 437.500
CUBEBUG 1 29 Aug 13:22:39 13:27:02 86° 105° (ESE) 13:31:25 437.445
VELOX 1 29 Aug 13:24:45 13:29:08 69° 101° (ESE) 13:33:33 145.980
BUGSAT 1 29 Aug 13:27:56 13:31:50 36° 78° (ENE) 13:35:43 437.445
SPROUT 29 Aug 13:33:08 13:37:01 36° 102° (ESE) 13:40:54 437.525
DX 1 29 Aug 13:36:39 13:40:57 61° 103° (ESE) 13:45:14 434.975-435.025
QB50P1 29 Aug 13:38:51 13:42:51 39° 258° (WSW) 13:46:50 145.935-145.965
O/OREOS (USA 219) 29 Aug 13:45:14 13:49:36 55° 104° (ESE) 13:53:59 437.305
DANDE 29 Aug 13:46:33 13:53:07 33° 263° (W) 14:00:24 436.750
POPSAT HIP 1 29 Aug 13:49:18 13:53:01 29° 258° (WSW) 13:56:42 437.405
RS-15 29 Aug 14:12:27 14:23:45 47° 250° (WSW) 14:34:41 29.354- 29.394
UKube-1 29 Aug 14:14:03 14:18:14 51° 282° (WNW) 14:22:26 .
AISAT 29 Aug 14:14:51 14:18:14 22° 282° (WNW) 14:21:36 437.250
ESTCUBE 1 29 Aug 14:15:20 14:16:43 11° 282° (WNW) 14:18:06 437.505/2401.250
DUCHIFAT 1 29 Aug 14:16:25 14:18:44 14° 258° (WSW) 14:21:01 145.980
JAS-2 29 Aug 14:30:18 14:35:04 34° 257° (WSW) 14:39:42 435.910
Oscar 19 29 Aug 14:37:38 14:42:21 37° 77° (ENE) 14:47:04 437.125/150
Cosmos 2499 29 Aug 14:53:01 14:57:16 15° 272° (W) 15:01:24 435.465 / 435.565
ITUPSAT 1 29 Aug 15:11:27 15:13:57 14° 103° (ESE) 15:16:27 437.325
JUGNU 29 Aug 15:14:31 15:17:19 13° 11° (N) 15:20:05 437.505
TISAT 1 29 Aug 15:21:42 15:25:36 40° 282° (WNW) 15:29:30 437.305
SWISSCUBE 29 Aug 15:41:30 15:46:01 43° 102° (ESE) 15:50:34 437.505
ITAMSAT 1 29 Aug 15:55:59 16:00:15 26° 77° (ENE) 16:04:28 435.822/435.867
BEESAT 29 Aug 15:58:14 16:02:56 64° 103° (ESE) 16:07:40 436.000
Gurwin Techsat 1B 29 Aug 16:01:07 16:06:20 57° 257° (WSW) 16:11:32 435.225
Oscar 19 29 Aug 16:19:09 16:21:23 13° 257° (WSW) 16:23:37 437.125/150
ITUPSAT 1 29 Aug 16:47:23 16:51:29 29° 282° (WNW) 16:55:39 437.325
AO-7 29 Aug 16:50:31 16:58:31 50° 74° (ENE) 17:06:27 29.400- 29.500
SRMSAT 29 Aug 16:55:15 16:56:50 11° 7° (N) 16:58:25 437.500
JUGNU 29 Aug 17:01:59 17:06:57 28° 18° (NNE) 17:11:55 437.505
KKS-1 29 Aug 17:15:04 17:19:12 40° 102° (ESE) 17:23:21 437.445
AO-85 29 Aug 17:32:50 17:35:57 24° 248° (WSW) 17:39:05 145.980
MOZHAYETS 4 29 Aug 17:33:17 17:37:51 78° 281° (W) 17:42:29
ITAMSAT 1 29 Aug 17:35:45 17:39:26 20° 257° (WSW) 17:43:06 435.822/435.867
STARS 29 Aug 17:46:01 17:50:08 42° 102° (ESE) 17:54:16 437.465
BRITE-PL 29 Aug 18:21:18 18:21:47 10° 76° (ENE) 18:22:15 437.365/2234.400
Cosmos 2491 29 Aug 18:32:28 18:40:33 43° 93° (E) 18:48:35 435.465 / 435.565
SRMSAT 29 Aug 18:42:30 18:46:50 21° 16° (NNE) 18:51:10 437.500
AO-7 29 Aug 18:44:52 18:50:52 22° 253° (WSW) 18:56:53 29.400- 29.500
NOAA 15 29 Aug 18:45:53 18:48:34 14° 77° (ENE) 18:51:14 137.62
ISS 29 Aug 18:47:17 18:50:33 87° 55° (NE) 18:53:48 145.825
HORYU 2 29 Aug 18:49:32 18:54:01 77° 257° (WSW) 18:58:29 437.375
JUGNU 29 Aug 18:50:14 18:56:07 74° 21° (NNE) 19:01:57 437.505
CUTE-I 29 Aug 18:51:28 18:53:21 12° 77° (ENE) 18:55:13 437.470
CUBESAT XI-V 29 Aug 18:58:13 19:02:55 79° 281° (W) 19:07:38 437.345
YUBILEINY 29 Aug 19:17:28 19:26:10 85° 86° (E) 19:34:54 435.215
GOMX 1 29 Aug 19:22:09 19:26:09 28° 77° (ENE) 19:30:21 467.674
NOAA 18 29 Aug 19:43:50 19:49:10 48° 77° (ENE) 19:54:28 137.9125
LilacSat-2 29 Aug 19:47:55 19:51:46 68° 80° (E) 19:55:36 437.200
BRITE-PL 29 Aug 19:55:55 19:59:54 34° 260° (W) 20:04:07 437.365/2234.400
BEESAT 3 29 Aug 20:13:04 20:15:01 13° 68° (ENE) 20:16:57 437.485
Cosmos 2504 29 Aug 20:15:01 20:22:09 69° 87° (E) 20:29:40 435.465 / 435.565
Cubesat XI-IV 29 Aug 20:16:35 20:21:53 60° 258° (WSW) 20:27:08 437.490
NOAA 15 29 Aug 20:23:18 20:28:03 35° 257° (WSW) 20:32:48 137.62
CUTE-I 29 Aug 20:28:03 20:33:06 43° 257° (WSW) 20:38:09 437.470
Cosmos 2491 29 Aug 20:30:29 20:36:58 24° 273° (W) 20:43:30 435.465 / 435.565
SRMSAT 29 Aug 20:30:33 20:36:18 51° 21° (NNE) 20:42:03 437.500
JUGNU 29 Aug 20:39:43 20:45:10 40° 200° (SSW) 20:50:37 437.505
HO-68 29 Aug 20:43:49 20:49:38 27° 75° (ENE) 20:55:24 435.675
DOVE 4 29 Aug 20:56:02 21:00:41 47° 259° (W) 21:05:33 437.250
GOMX 1 29 Aug 21:01:22 21:04:02 15° 260° (W) 21:06:46 467.674
STRAND 1 29 Aug 21:04:10 21:09:17 79° 282° (WNW) 21:14:26 437.568
SEEDS 29 Aug 21:10:07 21:13:14 20° 79° (ENE) 21:16:20 437.485
CINEMA 3 29 Aug 21:22:15 21:27:12 79° 79° (E) 21:32:13 145.822/145.860
NOAA 18 29 Aug 21:27:48 21:29:30 11° 256° (WSW) 21:31:12 137.9125
CUBEBUG 2 29 Aug 21:28:39 21:31:59 19° 79° (ENE) 21:35:17 437.445
BEESAT 2 29 Aug 21:34:25 21:38:23 87° 248° (WSW) 21:42:22 435.950
CANX-2 29 Aug 21:34:33 21:38:47 83° 256° (WSW) 21:42:59 2200.000
AAUSAT CUBESAT 2 29 Aug 21:35:28 21:38:37 21° 79° (ENE) 21:41:45 437.432
AIST 1 29 Aug 21:35:31 21:39:22 31° 86° (E) 21:43:13
CUTE 1.7 + AOD 2 29 Aug 21:40:15 21:44:29 83° 258° (WSW) 21:48:41 437.475
COMPASS 1 29 Aug 21:44:47 21:48:41 41° 79° (ENE) 21:52:33 437.405
BEESAT 3 29 Aug 21:49:29 21:52:25 20° 248° (WSW) 21:55:22 437.485
PHONESAT 2.4 29 Aug 22:12:15 22:15:02 33° 137° (SE) 22:17:48 2401.200-2431.200
SRMSAT 29 Aug 22:19:41 22:25:30 58° 201° (SSW) 22:31:22 437.500
SO-50 29 Aug 22:25:55 22:30:06 29° 112° (ESE) 22:34:17 436.795
HO-68 29 Aug 22:30:41 22:37:01 34° 255° (WSW) 22:43:21 435.675
JUGNU 29 Aug 22:30:49 22:34:34 17° 194° (SSW) 22:38:19 437.505
PCSat 29 Aug 22:32:10 22:35:46 18° 70° (ENE) 22:39:20 145.827
Oscar 11 29 Aug 22:34:36 22:38:46 48° 79° (ENE) 22:42:55 145.826/435.025
PRISM 29 Aug 22:35:32 22:39:40 68° 282° (WNW) 22:43:48 437.425
FUNcube-1 29 Aug 22:44:28 22:48:59 65° 78° (ENE) 22:53:25 145.935
SEEDS 29 Aug 22:46:20 22:48:40 15° 258° (WSW) 22:50:58 437.485
DELFI C3 29 Aug 22:56:45 23:00:12 30° 79° (ENE) 23:03:38 145.870
UWE-3 29 Aug 22:57:14 23:01:41 43° 258° (WSW) 23:06:02 435.000/436.395/437.385
ANTELSAT 29 Aug 23:04:14 23:06:22 14° 103° (ESE) 23:08:31 437.575/2403.000
CUBEBUG 2 29 Aug 23:04:40 23:08:19 22° 258° (WSW) 23:11:57 437.445
ZACube-1 29 Aug 23:07:08 23:11:37 54° 258° (WSW) 23:16:00 437.345
AAUSAT CUBESAT 2 29 Aug 23:11:48 23:13:49 13° 258° (WSW) 23:15:51 437.432
TIGRISAT 29 Aug 23:32:49 23:36:39 33° 102° (ESE) 23:40:31 435.000
HUMSAT D 29 Aug 23:35:41 23:39:46 46° 79° (ENE) 23:43:47 437.325/437.525
GONETS M04 29 Aug 23:36:18 23:41:46 18° 87° (E) 23:47:12
CUSAT 1 29 Aug 23:37:48 23:39:26 15° 96° (E) 23:41:03 437.405
RS-15 29 Aug 23:44:26 23:52:45 24° 111° (ESE) 00:01:14 29.354- 29.394
UNISAT 6 30 Aug 00:01:42 00:05:57 80° 282° (WNW) 00:10:17 437.425
AIST 2 30 Aug 00:03:22 00:07:23 48° 248° (WSW) 00:11:23 435.215
SO-50 30 Aug 00:07:30 00:10:20 15° 293° (WNW) 00:13:11 436.795
SRMSAT 30 Aug 00:10:17 00:14:56 23° 197° (SSW) 00:19:35 437.500
PCSat 30 Aug 00:14:15 00:18:53 29° 250° (WSW) 00:23:32 145.827
JAS-2 30 Aug 00:20:05 00:22:35 12° 105° (ESE) 00:25:06 435.910
POPSAT HIP 1 30 Aug 00:21:39 00:23:38 13° 102° (ESE) 00:25:36 437.405
JUGNU 30 Aug 00:24:19 00:24:32 10° 184° (S) 00:24:45 437.505
ANTELSAT 30 Aug 00:39:26 00:42:48 23° 282° (WNW) 00:46:14 437.575/2403.000
DUCHIFAT 1 30 Aug 00:45:16 00:48:44 26° 102° (ESE) 00:52:12 145.980
50 SAT 30 Aug 00:46:21 00:48:32 16° 79° (ENE) 00:50:44 437.505
ESTCUBE 1 30 Aug 00:50:00 00:54:20 50° 78° (ENE) 00:58:39 437.505/2401.250
AISAT 30 Aug 00:50:10 00:53:40 23° 78° (ENE) 00:57:11 437.250
QB50P2 30 Aug 00:50:35 00:54:32 40° 102° (ESE) 00:58:29 145.880/145.840
POLYITAN 1 30 Aug 00:53:06 00:57:02 41° 102° (ESE) 01:00:58 437.675
DANDE 30 Aug 00:53:30 00:56:40 84° 99° (E) 00:59:20 436.750
AUBIESAT-1 30 Aug 00:56:49 01:01:13 79° 254° (WSW) 01:05:48 437.475
NANOSAT C BR1 30 Aug 00:59:36 01:03:36 47° 102° (ESE) 01:07:38 145.865
M-CUBED/EXP-1 PRIME 30 Aug 01:04:32 01:08:45 47° 255° (WSW) 01:13:11 437.505
Cosmos 2499 30 Aug 01:05:46 01:12:58 77° 87° (E) 01:20:42 435.465 / 435.565
BUGSAT 1 30 Aug 01:31:11 01:34:57 39° 102° (ESE) 01:38:41 437.445
